CW9763 Weather Reports


time (UTC)temp
C
wind
direction
speed
KPH
gust
KPH
rain 1hr
cm
rain 24hr
cm
rain mn
cm
humidity
%
barometer
mb
20210920063328 20 288 4.8 8.0 0.00 0.00 0.00 39 1013.8
20210920062314 20 27 3.2 4.8 0.00 0.00 0.00 38 1013.8
20210920061327 21 27 3.2 6.4 0.00 0.00 0.00 37 1013.7
20210920060314 21 29 4.8 6.4 0.00 0.00 0.00 34 1013.6
20210920055322 21 279 1.6 4.8 0.00 0.00 0.00 34 1013.3
20210920054336 21 279 3.2 8.0 0.00 0.00 0.00 34 1013.3
20210920053320 22 279 6.4 8.0 0.00 0.00 0.00 34 1013.2
20210920052330 22 251 4.8 6.4 0.00 0.00 0.00 33 1013.2
20210920051315 22 250 4.8 8.0 0.00 0.00 0.00 32 1013.1
20210920050328 22 260 3.2 6.4 0.00 0.00 0.00 31 1012.9
20210920045313 23 321 3.2 4.8 0.00 0.00 0.00 31 1012.8
20210920044317 23 321 1.6 3.2 0.00 0.00 0.00 30 1012.8
20210920043326 24 321 3.2 14.5 0.00 0.00 0.00 30 1012.7
20210920042336 24 241 6.4 11.3 0.00 0.00 0.00 30 1012.6
20210920041321 25 235 6.4 11.3 0.00 0.00 0.00 30 1012.3
20210920040337 25 243 6.4 12.9 0.00 0.00 0.00 30 1012.2
20210920035321 25 238 6.4 12.9 0.00 0.00 0.00 30 1012.0
20210920034330 25 238 6.4 17.7 0.00 0.00 0.00 30 1011.8
20210920033320 24 223 8.0 14.5 0.00 0.00 0.00 30 1011.5
20210920032324 24 231 6.4 12.9 0.00 0.00 0.00 30 1011.4
20210920031314 25 194 9.7 11.3 0.00 0.00 0.00 29 1011.3
20210920030320 25 198 8.0 9.7 0.00 0.00 0.00 28 1011.0
20210920025328 25 209 6.4 11.3 0.00 0.00 0.00 27 1010.9
20210920024315 26 178 8.0 9.7 0.00 0.00 0.00 27 1010.7
20210920023316 26 172 8.0 11.3 0.00 0.00 0.00 26 1010.6
20210920022323 26 263 4.8 11.3 0.00 0.00 0.00 25 1010.5
20210920021325 27 169 4.8 9.7 0.00 0.00 0.00 26 1010.4
20210920020330 27 194 4.8 11.3 0.00 0.00 0.00 24 1010.3
20210920015318 28 206 1.6 11.3 0.00 0.00 0.00 23 1010.1
20210920014324 28 203 4.8 11.3 0.00 0.00 0.00 23 1009.9
20210920013322 28 207 8.0 11.3 0.00 0.00 0.00 23 1009.7
20210920012330 29 232 4.8 9.7 0.00 0.00 0.00 21 1009.7
20210920011317 30 231 4.8 12.9 0.00 0.00 0.00 21 1009.6
20210920010322 30 235 8.0 14.5 0.00 0.00 0.00 20 1009.6
20210920005325 31 257 11.3 19.3 0.00 0.00 0.00 19 1009.4
20210920004332 31 263 8.0 17.7 0.00 0.00 0.00 19 1009.4
20210920003319 31 263 11.3 17.7 0.00 0.00 0.00 18 1009.4
20210920002326 31 263 8.0 20.9 0.00 0.00 0.00 18 1009.4
20210920001314 31 263 4.8 14.5 0.00 0.00 0.00 18 1009.4
20210920000317 32 263 8.0 17.7 0.00 0.00 0.00 18 1009.3
20210919235324 32 303 11.3 17.7 0.00 0.00 0.00 17 1009.3
20210919234335 32 338 12.9 17.7 0.00 0.00 0.00 17 1009.3
20210919233316 32 327 6.4 16.1 0.00 0.00 0.00 16 1009.4
20210919232323 32 299 8.0 17.7 0.00 0.00 0.00 16 1009.5
20210919230332 33 315 8.0 14.5 0.00 0.00 0.00 15 1009.5
20210919225339 33 327 12.9 17.7 0.00 0.00 0.00 15 1009.6
20210919224347 33 360 8.0 14.5 0.00 0.00 0.00 15 1009.7
20210919223338 33 316 8.0 17.7 0.00 0.00 0.00 15 1009.8
20210919222343 33 264 11.3 14.5 0.00 0.00 0.00 14 1009.7
20210919221325 33 284 9.7 16.1 0.00 0.00 0.00 14 1009.9
20210919220344 34 263 3.2 8.0 0.00 0.00 0.00 14 1010.0
20210919215340 33 229 4.8 14.5 0.00 0.00 0.00 14 1010.2
20210919214338 33 223 11.3 17.7 0.00 0.00 0.00 14 1010.2
20210919213340 33 293 3.2 8.0 0.00 0.00 0.00 15 1010.4
20210919212330 33 287 1.6 6.4 0.00 0.00 0.00 15 1010.5
20210919211335 32 348 1.6 14.5 0.00 0.00 0.00 15 1010.7
20210919210339 33 320 6.4 16.1 0.00 0.00 0.00 15 1010.9
20210919205329 33 296 12.9 20.9 0.00 0.00 0.00 15 1011.1
20210919204331 33 317 8.0 14.5 0.00 0.00 0.00 15 1011.2
20210919203329 33 165 4.8 17.7 0.00 0.00 0.00 15 1011.4
20210919202336 32 190 17.7 24.1 0.00 0.00 0.00 15 1011.5
20210919201329 32 233 12.9 27.4 0.00 0.00 0.00 16 1011.7
20210919200340 32 224 8.0 19.3 0.00 0.00 0.00 16 1011.8
20210919195325 31 150 6.4 12.9 0.00 0.00 0.00 17 1012.0
20210919194348 31 43 4.8 6.4 0.00 0.00 0.00 17 1012.1
20210919193351 30 317 3.2 9.7 0.00 0.00 0.00 19 1012.3
20210919192325 30 327 3.2 14.5 0.00 0.00 0.00 19 1012.3
20210919191325 30 74 3.2 8.0 0.00 0.00 0.00 19 1012.6
20210919190342 29 322 3.2 9.7 0.00 0.00 0.00 20 1012.7
20210919185333 28 10 4.8 12.9 0.00 0.00 0.00 20 1012.8
20210919184336 28 360 8.0 16.1 0.00 0.00 0.00 20 1012.9
20210919183338 28 302 8.0 12.9 0.00 0.00 0.00 21 1013.1
20210919182332 28 251 8.0 12.9 0.00 0.00 0.00 22 1013.2
20210919181337 27 255 6.4 12.9 0.00 0.00 0.00 23 1013.3
20210919180340 26 261 6.4 14.5 0.00 0.00 0.00 23 1013.5
20210919175343 26 288 8.0 12.9 0.00 0.00 0.00 24 1013.5
20210919174334 25 322 8.0 12.9 0.00 0.00 0.00 25 1013.5
20210919173333 25 360 4.8 9.7 0.00 0.00 0.00 25 1013.5
20210919172337 25 13 11.3 17.7 0.00 0.00 0.00 25 1013.6
20210919171332 25 16 8.0 20.9 0.00 0.00 0.00 25 1013.4
20210919170333 24 267 6.4 12.9 0.00 0.00 0.00 26 1013.5
20210919165332 25 19 12.9 22.5 0.00 0.00 0.00 24 1013.5
20210919164328 24 279 14.5 24.1 0.00 0.00 0.00 28 1013.3
20210919163328 23 236 11.3 16.1 0.00 0.00 0.00 27 1013.3
20210919162334 22 298 8.0 14.5 0.00 0.00 0.00 27 1013.3
20210919161338 22 303 11.3 16.1 0.00 0.00 0.00 27 1013.3
20210919160325 22 302 6.4 16.1 0.00 0.00 0.00 27 1013.2
20210919155329 23 336 8.0 14.5 0.00 0.00 0.00 26 1013.2
20210919154330 22 185 3.2 4.8 0.00 0.00 0.00 28 1013.1
20210919153327 22 185 1.6 3.2 0.00 0.00 0.00 29 1013.2
20210919152331 21 185 3.2 4.8 0.00 0.00 0.00 29 1013.0
20210919151332 20 186 0.0 4.8 0.00 0.00 0.00 31 1013.0
20210919150328 20 186 6.4 8.0 0.00 0.00 0.00 32 1013.2
20210919145327 18 216 6.4 11.3 0.00 0.00 0.00 33 1013.4
20210919144331 18 149 1.6 4.8 0.00 0.00 0.00 33 1013.4
20210919143336 18 148 1.6 8.0 0.00 0.00 0.00 32 1013.5
20210919142329 18 144 6.4 11.3 0.00 0.00 0.00 31 1013.5
20210919141336 18 229 3.2 8.0 0.00 0.00 0.00 31 1013.3
20210919140334 19 231 4.8 6.4 0.00 0.00 0.00 30 1013.4
20210919135331 19 355 3.2 12.9 0.00 0.00 0.00 29 1013.3
20210919134335 19 224 3.2 16.1 0.00 0.00 0.00 31 1013.2
20210919133340 19 182 6.4 11.3 0.00 0.00 0.00 30 1013.2
20210919132345 18 267 9.7 16.1 0.00 0.00 0.00 34 1013.1
20210919131337 17 216 8.0 14.5 0.00 0.00 0.00 31 1013.1
20210919130339 17 266 9.7 14.5 0.00 0.00 0.00 31 1013.2
20210919125338 17 265 4.8 9.7 0.00 0.00 0.00 30 1013.2
20210919124332 18 229 8.0 12.9 0.00 0.00 0.00 28 1013.1
20210919123335 19 169 1.6 4.8 0.00 0.00 0.00 30 1013.2
20210919122335 20 168 6.4 8.0 0.00 0.00 0.00 30 1013.1
20210919121339 20 169 1.6 4.8 0.00 0.00 0.00 29 1013.1
20210919120329 20 169 4.8 11.3 0.00 0.00 0.00 28 1013.0
20210919115331 20 292 9.7 16.1 0.00 0.00 0.00 29 1013.1
20210919114336 19 157 0.0 4.8 0.00 0.00 0.00 31 1013.3
20210919113327 19 157 4.8 14.5 0.00 0.00 0.00 30 1013.3
20210919112330 18 144 6.4 12.9 0.00 0.00 0.00 26 1013.3
20210919111333 18 94 8.0 9.7 0.00 0.00 0.00 26 1013.4
20210919110325 19 146 3.2 6.4 0.00 0.00 0.00 25 1013.5
20210919105327 20 146 4.8 11.3 0.00 0.00 0.00 24 1013.7
20210919104333 20 219 1.6 9.7 0.00 0.00 0.00 24 1013.7
20210919103327 21 219 8.0 9.7 0.00 0.00 0.00 22 1013.6
20210919102326 21 290 4.8 11.3 0.00 0.00 0.00 21 1013.5
20210919101330 22 297 9.7 19.3 0.00 0.00 0.00 19 1013.6
20210919100348 23 269 17.7 30.6 0.00 0.00 0.00 19 1013.6
20210919095351 22 284 14.5 19.3 0.00 0.00 0.00 21 1013.5
20210919094326 22 207 12.9 20.9 0.00 0.00 0.00 25 1013.5
20210919093342 22 257 11.3 19.3 0.00 0.00 0.00 22 1013.9
20210919092349 22 240 8.0 16.1 0.00 0.00 0.00 23 1013.8
20210919091341 21 244 11.3 16.1 0.00 0.00 0.00 26 1014.0
20210919090326 21 242 11.3 27.4 0.00 0.00 0.00 26 1014.1
20210919085346 21 228 4.8 6.4 0.00 0.00 0.00 21 1014.5
20210919084353 21 222 3.2 9.7 0.00 0.00 0.00 21 1014.3
20210919083327 22 313 3.2 12.9 0.00 0.00 0.00 22 1014.6
20210919082328 22 237 11.3 24.1 0.00 0.00 0.00 24 1014.3
20210919081349 22 222 9.7 17.7 0.00 0.00 0.00 23 1014.6
20210919080338 22 231 8.0 12.9 0.00 0.00 0.00 21 1014.6
20210919075324 23 196 6.4 19.3 0.00 0.00 0.00 23 1014.6
20210919074350 23 205 12.9 19.3 0.00 0.00 0.00 22 1014.6
20210919073352 23 218 11.3 14.5 0.00 0.00 0.00 21 1014.7
20210919072324 23 198 6.4 20.9 0.00 0.00 0.00 22 1014.7
20210919071338 23 209 16.1 22.5 0.00 0.00 0.00 22 1014.8
20210919070337 23 192 14.5 24.1 0.00 0.00 0.00 22 1014.8
20210919065336 23 234 11.3 16.1 0.00 0.00 0.00 19 1014.8
20210919064333 23 207 9.7 12.9 0.00 0.00 0.00 19 1014.7